www.pogodaiklimat.ru

Погода и климат >> Архив погоды >> Беларусь >> Житковичи


АРХИВ ПОГОДЫ в Житковичах

Время (UTC), дата Ветер
(напр.,м/с)
 
Видим.   Явления Облачность Т
(С)
Тd
(С)
f
(%)
Тe
(С)
Тes
(С)
Комфортность P
(гПа)
Po
(гПа)
Тmin
(С)
Tmax
(С)
R
(мм)
R24
(мм)
S
(см)
18 12.09 Ю 1 10 км 10/3 600 м
[Sc Ac trans Cs]
+20.7 +16.6 77 +25 +25 комфорт 1003.8 988.1 +27.3
21 12.09 Ю 1 10 км {ливн. осадки} 9/5 600 м
[Cb cap Ac trans Cs]
+18.9 +16.9 88 +21 +21 комфорт 1003.9 988.1
00 13.09 штиль 0 4000 м дымка {ливн. осадки} 8/3 600 м
[Sc Ac trans]
+17.4 +16.4 94 +17 +17 тепло 1003.2 987.4
03 13.09 СЗ 3 4000 м слабый ливневой дождь 10/8 600 м
[Cb cap Ac As]
+15.8 +15.0 95 +15 +15 тепло 1003.3 987.4
06 13.09 З 4 10 км {ливн. осадки} 9/9 600 м
[Sc]
+15.4 +12.3 82 +14 +14 тепло 1005.3 989.2 +15.0 0.0
09 13.09 З 3 20 км {ливн. осадки} 9/3 600 м
[Cu med, cong Ac trans]
+17.7 +11.9 69 +18 +20 тепло 1006.9 991.1
12 13.09 ЮЗ 3 20 км {ливн. осадки} 9/9 600 м
[Sc]
+17.9 +10.6 62 +18 +19 по сезону 1008.2 992.4
15 13.09 ЮЗ 3
{10}
20 км 4/3 600 м
[Sc Ac trans]
+17.9 +10.9 64 +18 +19 тепло 1008.3 992.5
18 13.09 Ю 2 10 км 3/0
[Ci fib]
+14.0 +11.0 82 +13 +13 по сезону 1008.6 992.5 +20.2 0.0
21 13.09 Ю 2 10 км 4/0
[Ci fib]
+13.2 +10.5 84 +12 +12 по сезону 1008.3 992.1
00 14.09 Ю 2 10 км 9/0
[Ac trans]
+14.7 +11.1 79 +14 +14 тепло 1006.9 990.8
03 14.09 Ю 3 10 км 8/0
[Ac trans Ci fib]
+14.1 +9.7 75 +13 +13 тепло 1006.6 990.5
06 14.09 Ю 3 10 км 9/3 600 м
[Cb cap Ac trans Ci fib]
+15.2 +9.4 68 +15 +15 тепло 1006.3 990.2 +12.8
09 14.09 Ю 3
{10}
20 км 9/0
[Ac trans Ci fib]
+20.4 +12.2 59 +23 +26 комфорт 1005.9 990.2
12 14.09 Ю 3
{11}
20 км 9/6 600 м
[Cb cap Ac trans]
+22.3 +12.9 55 +25 +26 комфорт 1005.5 989.9
15 14.09 ЮЗ 3 20 км 9/3 600 м
[Sc diur, vesp Ac trans Ci fib]
+23.3 +12.5 51 +26 +26 жарко 1004.7 989.1
18 14.09 Ю 2 20 км 3/0
[Ac trans]
+20.6 +12.1 58 +23 +23 комфорт 1004.6 988.9 +24.0
21 14.09 Ю 1 10 км ясно +18.8 +11.1 61 +21 +21 комфорт 1004.7 988.9
00 15.09 Ю 2 10 км 3/0
[Ac trans]
+17.4 +10.5 64 +18 +18 тепло 1003.7 987.8
03 15.09 З 7 10 км 10/0
[Ac und]
+15.5 +10.9 74 +14 +14 тепло 1005.3 988.4
06 15.09 ЮЗ 4
{11}
4000 м слабый ливневой дождь 10/8 600 м
[Cb cap Ac As]
+12.4 +9.4 82 +10 +11 по сезону 1007.3 991.1 +12.2 0.5
09 15.09 З 4-10
{10}
10 км {ливн. осадки} 8/8 600 м
[Sc]
+14.4 +8.6 68 +13 +14 по сезону 1010.2 994.1
12 15.09 З 5-10
{13}
10 км {ливн. осадки} 9/9 600 м
[Sc]
+16.1 +7.3 56 +15 +16 по сезону 1012.1 996.1
15 15.09 З 4
{10}
20 км 4/4 600 м
[Sc]
+16.6 +7.7 56 +16 +16 тепло 1013.5 997.5
18 15.09 ЮЗ 1 10 км 1/1 600 м
[Sc]
+12.6 +8.1 74 +13 +13 по сезону 1015.1 998.8 +17.9 0.0
21 15.09 ЮЗ 1 10 км ясно +10.0 +7.7 86 +10 +10 по сезону 1017.2 1001.2
00 16.09 штиль 0 4000 м дымка ясно +7.2 +6.8 97 +6 +6 по сезону 1018.2 1001.5
03 16.09 штиль 0 2000 м дымка 3/0
[Ci fib]
+4.9 +4.7 99 +4 +4 прохладно 1019.3 1002.5
06 16.09 Ю 1 10 км 9/0
[Ac trans Ci fib]
+8.9 +6.5 85 +8 +10 по сезону 1019.9 1003.3 +4.2
09 16.09 ЮВ 1 20 км 9/9 1000 м
[Sc]
+16.2 +9.0 62 +17 +18 тепло 1020.1 1003.9
12 16.09 В 1 20 км 10/0
[Ac As]
+16.0 +9.4 65 +17 +19 по сезону 1020.0 1003.8
15 16.09 штиль 0 10 км 10/4 600 м
[Sc As op]
+15.0 +10.9 76 +15 +15 по сезону 1019.2 1002.9
18 16.09 В 1 4000 м слабый ливневой дождь 10/8 600 м
[Cb cap Ac und]
+14.4 +10.4 77 +15 +15 тепло 1018.7 1002.5 +17.7 0.0
21 16.09 В 1 10 км {ливн. осадки} 9/9 600 м
[Sc]
+14.1 +10.0 76 +14 +14 тепло 1017.2 1001.0
00 17.09 В 1 10 км {ливн. осадки} 3/0
[Ac trans]
+13.9 +9.4 74 +14 +14 тепло 1015.7 999.5
03 17.09 штиль 0 10 км 9/3 600 м
[Cb cap Ac trans]
+10.6 +8.8 89 +10 +10 по сезону 1015.1 998.7
06 17.09 В 2 10 км 6/0
[Ci fib]
+14.8 +11.1 78 +15 +16 тепло 1014.3 998.1 +9.8 0.0
09 17.09 ЮВ 2 20 км 8/0
[Ac trans Ci fib]
+20.8 +14.3 66 +24 +29 комфорт 1013.6 997.7
12 17.09 ЮВ 1 20 км 9/3 600 м
[Cb cap Ac trans Ci fib]
+24.5 +14.8 55 +27 +30 жарко 1011.8 996.2
15 17.09 СЗ 1 20 км 10/4 600 м
[Cb cap Ac As]
+22.5 +17.7 74 +28 +28 душно 1010.5 994.8
18 17.09 СВ 2 10 км гроза без осадков {ливн. осадки} 10/8 600 м
[Cb cap Ac und]
+18.1 +17.4 96 +19 +19 тепло 1009.2 993.3 +25.6 8
21 17.09 В 1 4000 м дымка {гроза, ливн. осадки} 9/0
[Ac trans]
+17.3 +16.8 97 +18 +18 тепло 1006.0 990.2
00 18.09 ЮЗ 3
{11}
4000 м дымка {гроза, ливн. осадки} 6/0
[Ac trans]
+17.5 +16.4 93 +17 +17 тепло 1004.5 988.7
03 18.09 Ю 1 4000 м дымка 1/0
[Ac trans]
+14.3 +13.4 94 +15 +15 тепло 1004.7 988.6
06 18.09 ЮЗ 6-13
{13}
10 км 9/9 600 м
[Sc]
+14.6 +10.6 77 +13 +13 тепло 1005.8 989.7 +14.0 0.3
09 18.09 ЮЗ 6-13
{13}
10 км 9/9 600 м
[Sc]
+15.5 +8.0 61 +14 +14 по сезону 1007.8 991.7
12 18.09 ЮЗ 7-16
{17}
10 км 9/9 600 м
[Sc]
+17.1 +7.1 52 +16 +16 по сезону 1008.6 992.6
15 18.09 ЮЗ 6-13
{16}
10 км 9/9 600 м
[Sc]
+17.3 +6.4 49 +17 +17 тепло 1009.1 993.1
18 18.09 З 8-16
{17}
10 км 6/6 600 м
[Sc]
+15.2 +7.6 60 +13 +13 по сезону 1011.2 995.1 +18.7
21 18.09 З 4
{16}
10 км 3/3 600 м
[Sc]
+12.6 +8.4 76 +11 +11 по сезону 1013.5 997.3
00 19.09 ЮЗ 2
{10}
10 км ясно +10.0 +8.1 88 +8 +8 по сезону 1015.3 998.8
03 19.09 З 2 4000 м дымка ясно +8.4 +7.3 93 +6 +6 по сезону 1016.6 1000.0
06 19.09 ЮЗ 2 10 км 4/0
[Ci fib]
+10.9 +7.8 81 +10 +11 по сезону 1017.7 1001.3 +7.6
09 19.09 З 3 20 км 8/0
[Ci]
+16.1 +8.9 62 +16 +21 тепло 1018.3 1002.2
12 19.09 ЮЗ 1 20 км 8/3 600 м
[Cu med, cong Ci fib]
+18.8 +8.9 53 +20 +25 тепло 1018.3 1002.3
15 19.09 штиль 0 20 км 9/4 600 м
[Sc diur, vesp Ac trans Ci fib]
+17.4 +8.6 56 +17 +18 тепло 1018.2 1002.1

 

Местоположение метеостанции Житковичи (Гомельская область, Беларусь): широта 52.22 долгота 27.87 высота над уровнем моря 137 м.

В архиве по умолчанию представлена погода в Житковичах за последнюю неделю. Архивные данные за месяц целиком и за предыдущие месяцы, начиная с января 2011 года, Вы можете получить, выбрав интересующий диапазон дат из раскрывающегося списка и нажав кнопку "Ввод!".

Внимание! Время в таблицах - всемирное. Для получения местного времени необходимо прибавить поправку, которая в Житковичах равна 3 ч.

Смотрите также архив погоды в соседних городах и на ближайших метеорологических станциях:

Погода в Полесской (Брестская область, Беларусь) (80 км)
Погода в Октябре (Гомельская область, Беларусь) (82 км)
Погода в Мозыре (Гомельская область, Беларусь) (92 км)
Погода в Слуцке (Минская область, Беларусь) (93 км)
Погода в Барановичах (Брестская область, Беларусь) (101 км)
Погода в Олевске (Житомирская область, Украина) (112 км)
Погода в Ганцевичах (Брестская область, Беларусь) (113 км)
Погода в Овруче (Житомирская область, Украина) (118 км)
Погода в Пинске (Брестская область, Беларусь) (124 км)
Погода в Василевичах (Гомельская область, Беларусь) (134 км)

Пояснения к столбцам:

Ветер - указаны скорость ветра в м/с - средняя за 10 мин, порывы в срок и между сроками (в фигурных скобках) и направление, откуда дует ветер: С - северный, СВ - северо-восточный, В - восточный, ЮВ - юго-восточный, Ю - южный, ЮЗ - юго-западный, З - западный, СЗ - северо-западный.
Видимость - горизонтальная дальность видимости в метрах или километрах. При видимости от 1 до 10 км при отсутствии осадков обычно наблюдается дымка, при ухудшении видимости до 1 км и менее - туман. В сухую погоду видимость может ухудшаться дымом, пылью или мглою.
Явления - указаны атмосферные явления, наблюдавшиеся в срок или в последний час перед сроком; фигурными скобками обозначены явления, наблюдавшиеся между сроками (за 1-3 часа до срока); квадратными скобками обозначены град или гололедные отложения с указанием их диаметра в мм.
Облачность - указаны через наклонную черту общая и нижняя облачность в баллах и высота нижней границы облаков в метрах; квадратными скобками обозначены формы облаков: Ci - перистые, Cs - перисто-слоистые, Cc - перисто-кучевые, Ac - высококучевые, As - высокослоистые, Sc - слоисто-кучевые, Ns - слоисто-дождевые, Cu - кучевые, Cb - кучево-дождевые. Подробнее классификацию облаков см. в Атласе облаков (PDF).
T - Температура воздуха - температура, измеренная на высоте 2 м над землей.
Td - Температура точки росы - температура, при понижении до которой содержащийся в воздухе водяной пар достигнет насыщения.
f - Относительная влажность воздуха - влажноcть воздуха, измеренная на высоте 2 м над землей.
Te - Эффективная температура - температура, которую ощущает одетый по сезону человек в тени. Характеристика душности погоды. При расчете учитывается влияние влажности воздуха и скорости ветра на теплоощущения человека.
Tes - Эффективная температура на солнце - температура, которую ощущает человек, с поправкой на солнечный нагрев. Характеристика знойности погоды. Зависит от высоты солнца над горизонтом, облачности и скорости ветра. Ночью, в пасмурную погоду, а также при ветре 12 м/с и более поправка равна нулю.
P - Атмосферное давление - приведенное к уровню моря атмосферное давление.
Po - Атмосферное давление - измеренное на уровне метеостанции атмосферное давление.
Tmin - Минимальная температура - минимум температуры воздуха на высоте 2 м над землей.
Tmax - Максимальная температура - максимум температуры воздуха на высоте 2 м над землей.
R - Количество осадков - Количество выпавших осадков за период времени, мм. При наведении курсора мыши на число - период времени, за который выпало указанное количество осадков.
R24 - Количество осадков - Количество выпавших осадков за 24 часа, мм.
S - Снежный покров - Высота снежного покрова, см. При наведении курсора мыши на число - состояние снежного покрова и степень покрытия местности в баллах.